CW5306 Weather Reports


time (UTC)temp
F
wind
direction
speed
knots
gust
knots
rain 1hr
in
rain 24hr
in
rain mn
in
humidity
%
barometer
mb
20260503200127 73 171 5.2 11.3 0.00 0.00 0.00 87 1018.6
20260503195628 73 189 3.5 11.3 0.00 0.00 0.00 86 1018.5
20260503195130 74 186 4.3 13.9 0.00 0.00 0.00 84 1018.6
20260503194858 74 70 8.7 13.0 0.00 0.00 0.00 79 1018.8
20260503194128 75 185 0.0 13.0 0.00 0.00 0.00 79 1018.5
20260503193622 74 136 3.5 13.0 0.00 0.00 0.00 80 1018.6
20260503193111 74 138 8.7 14.8 0.00 0.00 0.00 82 1018.8
20260503192605 74 114 7.8 14.8 0.00 0.00 0.00 80 1018.8
20260503192112 75 100 10.4 14.8 0.00 0.00 0.00 78 1018.7
20260503192106 75 112 7.0 14.8 0.00 0.00 0.00 80 1018.6
20260503191105 75 94 5.2 14.8 0.00 0.00 0.00 80 1018.6
20260503190605 74 68 10.4 16.5 0.00 0.00 0.00 80 1018.6
20260503190556 75 11 7.0 17.4 0.00 0.00 0.00 81 1018.5
20260503185555 76 68 7.8 17.4 0.00 0.00 0.00 81 1018.5
20260503185041 76 92 8.7 13.0 0.00 0.00 0.00 81 1018.5
20260503184529 76 145 0.9 12.2 0.00 0.00 0.00 81 1018.7
20260503184029 76 93 2.6 12.2 0.00 0.00 0.00 80 1018.6
20260503183530 76 113 4.3 13.9 0.00 0.00 0.00 80 1018.4
20260503183030 76 115 4.3 13.9 0.00 0.00 0.00 81 1018.4
20260503182536 76 51 7.0 17.4 0.00 0.00 0.00 79 1018.3
20260503182530 76 83 7.8 17.4 0.00 0.00 0.00 80 1018.5
20260503181529 76 78 7.8 14.8 0.00 0.00 0.00 78 1018.4
20260503181250 77 85 8.7 13.9 0.00 0.00 0.00 77 1018.2
20260503180748 77 55 5.2 13.9 0.00 0.00 0.00 77 1018.3
20260503180024 76 73 3.5 13.9 0.00 0.00 0.00 79 1018.3
20260503180018 77 47 5.2 12.2 0.00 0.00 0.00 78 1018.3
20260503175018 76 83 7.0 13.9 0.00 0.00 0.00 80 1018.1
20260503174519 75 81 7.0 13.0 0.00 0.00 0.00 79 1018.1
20260503174017 75 108 4.3 13.0 0.00 0.00 0.00 80 1017.9
20260503173505 75 82 5.2 12.2 0.00 0.00 0.00 80 1018.1
20260503173005 75 39 5.2 12.2 0.00 0.00 0.00 80 1017.9
20260503172506 75 71 5.2 11.3 0.00 0.00 0.00 80 1017.8
20260503172006 75 82 5.2 12.2 0.00 0.00 0.00 80 1017.8
20260503171506 75 110 4.3 12.2 0.00 0.00 0.00 80 1017.7
20260503171006 75 47 7.0 8.7 0.00 0.00 0.00 80 1017.7
20260503170506 74 117 3.5 11.3 0.00 0.00 0.00 80 1017.6
20260503150955 73 109 2.6 8.7 0.00 0.00 0.00 81 1016.9
20260503150454 73 142 5.2 8.7 0.00 0.00 0.00 82 1017.0
20260503140212 73 102 4.3 12.2 0.00 0.00 0.00 83 1017.2
20260503131213 73 72 5.2 12.2 0.00 0.00 0.00 83 1017.0
20260503130713 73 70 0.9 8.7 0.00 0.00 0.00 83 1016.9
20260503110442 74 89 6.1 12.2 0.00 0.00 0.00 81 1017.9
20260503090441 74 103 7.0 12.2 0.00 0.00 0.00 79 1017.8
20260503090213 74 100 3.5 12.2 0.00 0.00 0.00 80 1018.1
20260503081447 74 86 3.5 12.2 0.00 0.00 0.00 78 1017.6
20260503081441 74 118 4.3 12.2 0.00 0.00 0.00 78 1017.8
20260503080442 75 96 8.7 13.0 0.00 0.00 0.00 78 1017.8
20260503072942 75 99 7.0 12.2 0.00 0.00 0.00 79 1017.5
20260503072443 75 105 2.6 12.2 0.00 0.00 0.00 78 1017.3
20260503071941 75 103 7.8 13.9 0.00 0.00 0.00 79 1017.3
20260503071442 75 26 3.5 13.9 0.00 0.00 0.00 79 1017.3
20260503070941 75 85 7.8 13.9 0.00 0.00 0.00 79 1017.1
20260503070441 74 46 6.1 13.9 0.00 0.00 0.00 78 1017.3
20260503054941 75 120 8.7 13.0 0.00 0.00 0.00 78 1016.3
20260503054447 75 77 5.2 13.9 0.00 0.00 0.00 78 1016.1
20260503054441 75 48 5.2 13.9 0.00 0.00 0.00 78 1016.4
20260503053443 75 112 7.0 13.9 0.00 0.00 0.00 77 1016.1
20260503052941 75 54 6.1 13.9 0.00 0.00 0.00 77 1015.9
20260503052712 75 76 7.0 11.3 0.00 0.00 0.00 77 1015.9
20260503051941 75 115 5.2 11.3 0.00 0.00 0.00 78 1015.8
20260503051441 75 98 8.7 13.0 0.00 0.00 0.00 77 1016.0
20260503050943 75 84 6.1 13.0 0.00 0.00 0.00 77 1015.8
20260503050441 75 104 7.8 13.9 0.00 0.00 0.00 77 1015.7
20260503045947 75 138 7.0 13.9 0.00 0.00 0.00 79 1015.6
20260503045941 75 73 0.0 13.9 0.00 0.00 0.00 79 1015.7
20260503044942 75 94 5.2 13.9 0.00 0.00 0.00 79 1015.5
20260503044443 75 81 6.1 20.9 0.00 0.00 0.00 80 1015.5
20260503043941 75 40 6.1 20.9 0.00 0.00 0.00 80 1015.2
20260503043442 75 103 7.8 13.9 0.00 0.00 0.00 79 1015.4
20260503042942 75 98 11.3 13.0 0.00 0.00 0.00 78 1015.1
20260503042445 75 70 6.1 13.0 0.00 0.00 0.00 78 1015.2
20260503041941 75 112 6.1 12.2 0.00 0.00 0.00 77 1015.0
20260503041442 75 102 3.5 13.0 0.00 0.00 0.00 77 1015.1
20260503040941 75 128 4.3 13.0 0.00 0.00 0.00 77 1015.1
20260503040440 75 104 8.7 13.0 0.00 0.00 0.00 77 1015.2
20260503035940 76 122 6.1 13.0 0.00 0.00 0.00 75 1015.1
20260503035442 76 105 4.3 13.0 0.00 0.00 0.00 76 1015.2
20260503034940 76 103 5.2 13.0 0.00 0.00 0.00 76 1015.0
20260503034441 76 84 7.8 13.0 0.00 0.00 0.00 74 1015.0
20260503033941 76 86 5.2 12.2 0.00 0.00 0.00 75 1014.8
20260503033441 76 72 8.7 12.2 0.00 0.00 0.00 75 1014.9
20260503032941 76 120 3.5 12.2 0.00 0.00 0.00 75 1015.0
20260503032442 76 108 7.0 12.2 0.00 0.00 0.00 75 1015.0
20260503032211 76 87 5.2 12.2 0.00 0.00 0.00 75 1014.8
20260503031440 76 88 5.2 12.2 0.00 0.00 0.00 76 1014.7
20260503030940 77 76 8.7 12.2 0.00 0.00 0.00 75 1015.0
20260503030712 77 70 2.6 13.9 0.00 0.00 0.00 74 1014.8
20260503030212 77 110 1.7 13.9 0.00 0.00 0.00 73 1015.0
20260503025712 77 117 5.2 13.0 0.00 0.00 0.00 73 1014.9
20260503024941 77 88 9.6 13.0 0.00 0.00 0.00 72 1015.0
20260503024442 78 69 7.8 13.0 0.00 0.00 0.00 72 1015.1
20260503023940 78 128 7.8 13.0 0.00 0.00 0.00 72 1015.0
20260503023441 77 102 2.6 13.0 0.00 0.00 0.00 73 1014.9
20260503022942 78 99 6.1 13.0 0.00 0.00 0.00 73 1014.9
20260503022440 78 90 7.0 12.2 0.00 0.00 0.00 74 1014.7
20260503021941 77 91 7.0 12.2 0.00 0.00 0.00 73 1014.9
20260503021442 78 98 4.3 13.0 0.00 0.00 0.00 73 1014.5
20260503020941 77 132 3.5 13.0 0.00 0.00 0.00 74 1014.9
20260503020441 77 120 3.5 14.8 0.00 0.00 0.00 74 1014.8
20260503020211 77 96 4.3 14.8 0.00 0.00 0.00 74 1014.5
20260503015711 77 96 5.2 14.8 0.00 0.00 0.00 74 1014.7
20260503014941 77 76 7.0 14.8 0.00 0.00 0.00 74 1014.5
20260503014711 77 78 4.3 14.8 0.00 0.00 0.00 75 1014.7
20260503013929 77 91 3.5 17.4 0.00 0.00 0.00 74 1014.7
20260503013428 78 72 6.1 17.4 0.00 0.00 0.00 72 1014.3
20260503012929 78 93 7.8 17.4 0.00 0.00 0.00 71 1014.5
20260503012428 78 78 7.0 17.4 0.00 0.00 0.00 74 1014.4
20260503011928 78 104 7.8 17.4 0.00 0.00 0.00 75 1014.5
20260503011428 77 110 3.5 17.4 0.00 0.00 0.00 75 1014.5
20260503010928 77 127 9.6 18.2 0.00 0.00 0.00 74 1014.6
20260503010647 78 69 9.6 18.2 0.00 0.00 0.00 73 1014.6
20260503010148 78 76 7.0 16.5 0.00 0.00 0.00 72 1014.8
20260503005648 78 90 7.0 16.5 0.00 0.00 0.00 74 1014.6
20260503004917 78 107 5.2 14.8 0.00 0.00 0.00 74 1015.0
20260503004417 78 68 8.7 14.8 0.00 0.00 0.00 73 1015.0
20260503003917 78 118 7.0 13.9 0.00 0.00 0.00 73 1014.8
20260503003417 79 136 7.0 13.9 0.00 0.00 0.00 71 1014.9
20260503002906 79 81 4.3 16.5 0.00 0.00 0.00 71 1014.7
20260503002637 79 54 5.2 16.5 0.00 0.00 0.00 71 1015.1
20260503001906 79 75 8.7 17.4 0.00 0.00 0.00 71 1015.2
20260503001405 79 111 7.8 17.4 0.00 0.00 0.00 73 1015.2
20260503001136 79 72 5.2 17.4 0.00 0.00 0.00 71 1015.1
20260503000407 79 48 8.7 14.8 0.00 0.00 0.00 72 1015.2
20260502235905 80 109 5.2 14.8 0.00 0.00 0.00 73 1015.3
20260502235353 79 85 7.8 14.8 0.00 0.00 0.00 71 1015.4
20260502234852 79 120 6.1 13.9 0.00 0.00 0.00 71 1015.4
20260502234624 79 68 9.6 13.9 0.00 0.00 0.00 70 1015.8
20260502233854 79 70 7.8 14.8 0.00 0.00 0.00 71 1015.8
20260502233353 79 66 8.7 13.9 0.00 0.00 0.00 70 1016.0
20260502232854 79 90 3.5 13.9 0.00 0.00 0.00 71 1016.1
20260502232352 80 87 3.5 13.9 0.00 0.00 0.00 71 1015.9
20260502231852 80 101 6.1 14.8 0.00 0.00 0.00 72 1016.2
20260502231353 79 60 9.6 16.5 0.00 0.00 0.00 71 1016.2
20260502230855 80 90 7.0 16.5 0.00 0.00 0.00 69 1016.1
20260502230353 80 88 7.8 14.8 0.00 0.00 0.00 68 1016.5
20260502225852 80 113 8.7 13.9 0.00 0.00 0.00 69 1016.5
20260502225359 79 128 9.6 16.5 0.00 0.00 0.00 70 1016.6
20260502225353 80 92 7.0 16.5 0.00 0.00 0.00 70 1016.4
20260502224623 79 63 5.2 14.8 0.00 0.00 0.00 72 1016.7
20260502223854 79 75 7.0 16.5 0.00 0.00 0.00 71 1016.8
20260502223354 79 92 5.2 16.5 0.00 0.00 0.00 71 1016.8
20260502222853 80 97 6.1 13.0 0.00 0.00 0.00 68 1016.8
20260502222401 80 59 5.2 16.5 0.00 0.00 0.00 67 1017.1
20260502222352 80 76 9.6 13.9 0.00 0.00 0.00 68 1017.1
20260502221853 80 119 9.6 16.5 0.00 0.00 0.00 65 1017.0
20260502220852 80 100 12.2 17.4 0.00 0.00 0.00 66 1017.4
20260502220623 80 81 7.8 17.4 0.00 0.00 0.00 68 1017.3
20260502220123 80 60 8.7 14.8 0.00 0.00 0.00 67 1017.2
20260502215352 80 57 7.8 14.8 0.00 0.00 0.00 68 1017.2
20260502214851 80 63 8.7 14.8 0.00 0.00 0.00 68 1017.3
20260502214623 80 98 3.5 17.4 0.00 0.00 0.00 67 1017.2
20260502213852 79 93 7.0 17.4 0.00 0.00 0.00 67 1017.4
20260502213622 79 55 7.0 13.9 0.00 0.00 0.00 66 1017.1
20260502212852 80 82 11.3 14.8 0.00 0.00 0.00 66 1017.5
20260502212352 79 117 6.1 17.4 0.00 0.00 0.00 67 1017.5
20260502211851 79 124 11.3 17.4 0.00 0.00 0.00 68 1017.6
20260502211353 79 101 9.6 16.5 0.00 0.00 0.00 68 1017.5
20260502211122 79 61 5.2 16.5 0.00 0.00 0.00 69 1017.4
20260502210622 79 104 6.1 16.5 0.00 0.00 0.00 69 1017.4
20260502205851 79 73 4.3 14.8 0.00 0.00 0.00 70 1017.4
20260502205352 79 118 9.6 14.8 0.00 0.00 0.00 66 1017.4
20260502204852 80 108 7.8 16.5 0.00 0.00 0.00 66 1017.3
20260502204352 80 117 6.1 16.5 0.00 0.00 0.00 68 1017.6
20260502203852 79 65 7.0 13.9 0.00 0.00 0.00 69 1017.3
20260502203352 79 118 4.3 17.4 0.00 0.00 0.00 69 1017.3
20260502202852 79 128 5.2 20.0 0.00 0.00 0.00 69 1017.3
20260502202351 79 83 6.1 20.0 0.00 0.00 0.00 69 1017.5
20260502201851 79 102 7.8 14.8 0.00 0.00 0.00 70 1017.3
20260502201351 79 89 9.6 14.8 0.00 0.00 0.00 69 1017.6
20260502200851 79 97 5.2 14.8 0.00 0.00 0.00 70 1017.4